DW3219 Weather Reports


Display with metric or nautical units.
time (UTC)temp
F
wind
direction
speed
MPH
gust
MPH
rain 1hr
in
rain 24hr
in
rain mn
in
humidity
%
barometer
mb
20260901140015 55 240 0.0 0.0 0.00 0.00 0.00 62 1009.2
20260901134515 54 236 0.0 0.0 0.00 0.00 0.00 65 1009.2
20260901133013 54 238 0.0 0.0 0.00 0.00 0.00 62 1009.2
20260901131522 54 240 0.0 0.0 0.00 0.00 0.00 62 1009.1
20260901130013 54 240 0.0 0.0 0.00 0.00 0.00 60 1009.2
20260901124513 55 246 0.0 0.0 0.00 0.00 0.00 55 1009.1
20260901123012 54 243 0.0 0.0 0.00 0.00 0.00 55 1009.2
20260901121514 53 249 0.0 1.0 0.00 0.00 0.00 61 1009.4
20260901120054 53 246 0.0 7.0 0.00 0.00 0.00 64 1009.3
20260901114554 53 254 0.0 0.0 0.00 0.00 0.00 63 1009.3
20260901113041 52 269 0.0 4.0 0.00 0.00 0.00 62 1009.1
20260901111540 52 263 0.0 0.0 0.00 0.00 0.00 63 1009.1
20260901110040 52 266 0.0 0.0 0.00 0.00 0.00 64 1009.0
20260901104539 51 251 0.0 0.0 0.00 0.00 0.00 69 1009.1
20260901103038 51 254 0.0 3.0 0.00 0.00 0.00 67 1008.9
20260901101543 52 250 0.0 0.0 0.00 0.00 0.00 66 1008.9
20260901100041 51 253 0.0 0.0 0.00 0.00 0.00 64 1008.9
20260901094536 51 250 0.0 2.0 0.00 0.00 0.00 64 1008.9
20260901093017 52 259 0.0 0.0 0.00 0.00 0.00 62 1008.9
20260901091517 53 263 0.0 0.0 0.00 0.00 0.00 61 1008.9
20260901090025 53 263 0.0 0.0 0.00 0.00 0.00 62 1009.1
20260901084513 53 263 0.0 0.0 0.00 0.00 0.00 58 1009.2
20260901083027 53 263 0.0 0.0 0.00 0.00 0.00 58 1009.3
20260901081516 53 263 0.0 0.0 0.00 0.00 0.00 60 1009.2
20260901080013 54 266 0.0 0.0 0.00 0.00 0.00 61 1009.1
20260901074518 54 242 0.0 3.0 0.00 0.00 0.00 62 1009.3
20260901073025 55 248 0.0 2.0 0.00 0.00 0.00 60 1009.3
20260901071508 55 260 0.0 1.0 0.00 0.00 0.00 60 1009.3
20260901070019 56 266 0.0 0.0 0.00 0.00 0.00 56 1009.3
20260901064518 56 257 0.0 6.0 0.00 0.00 0.00 57 1009.5
20260901063011 55 260 0.0 2.0 0.00 0.00 0.00 60 1009.6
20260901061509 55 269 0.0 1.0 0.00 0.00 0.00 57 1009.7
20260901060046 56 270 0.0 0.0 0.00 0.00 0.00 57 1009.7
20260901054537 57 259 0.0 0.0 0.00 0.00 0.00 50 1009.7
20260901053024 57 254 0.0 0.0 0.00 0.00 0.00 49 1009.6
20260901051519 58 237 0.0 0.0 0.00 0.00 0.00 47 1009.4
20260901050017 61 223 0.0 0.0 0.00 0.00 0.00 47 1009.5
20260901044516 60 217 0.0 0.0 0.00 0.00 0.00 47 1009.6
20260901043013 61 217 0.0 0.0 0.00 0.00 0.00 46 1009.7
20260901041511 61 217 0.0 0.0 0.00 0.00 0.00 47 1009.8
20260901040006 64 187 0.0 0.0 0.00 0.00 0.00 45 1009.9
20260901034508 65 182 0.0 0.0 0.00 0.00 0.00 44 1009.8
20260901033125 65 182 0.0 0.0 0.00 0.00 0.00 45 1009.7
20260901031607 65 182 0.0 0.0 0.00 0.00 0.00 44 1009.6
20260901030047 66 169 0.0 2.0 0.00 0.00 0.00 45 1009.3
20260901024543 68 86 0.0 0.0 0.00 0.00 0.00 41 1009.1
20260901023042 69 86 0.0 0.0 0.00 0.00 0.00 37 1009.1
20260901021534 71 80 0.0 0.0 0.00 0.00 0.00 35 1009.1
20260901020030 74 81 0.0 0.0 0.00 0.00 0.00 32 1009.2
20260901014525 75 81 0.0 0.0 0.00 0.00 0.00 28 1009.3
20260901013023 77 81 0.0 0.0 0.00 0.00 0.00 26 1009.3
20260901011508 78 81 0.0 0.0 0.00 0.00 0.00 22 1009.2
20260901010009 79 81 0.0 0.0 0.00 0.00 0.00 22 1009.1
20260901004504 80 76 0.0 0.0 0.00 0.00 0.00 19 1008.9
20260901003103 80 76 0.0 0.0 0.00 0.00 0.00 20 1009.1
20260901001603 81 85 0.0 3.0 0.00 0.00 0.00 20 1009.2
20260901000057 81 73 0.0 0.0 0.00 0.00 0.00 19 1009.4
20260831234554 82 103 0.0 0.0 0.00 0.00 0.00 18 1009.5
20260831233052 82 80 0.0 0.0 0.00 0.00 0.00 14 1009.8
20260831231537 82 103 0.0 3.0 0.00 0.00 0.00 13 1009.8
20260831230043 81 66 0.0 6.0 0.00 0.00 0.00 14 1009.7
20260831224522 82 92 0.0 6.0 0.00 0.00 0.00 17 1009.8
20260831223021 82 80 0.0 0.0 0.00 0.00 0.00 14 1009.8
20260831221530 81 112 2.0 7.0 0.00 0.00 0.00 13 1010.0
20260831220017 81 96 1.0 8.0 0.00 0.00 0.00 14 1010.2
20260831214515 82 92 0.0 0.0 0.00 0.00 0.00 14 1010.4
20260831213011 81 155 0.0 1.0 0.00 0.00 0.00 12 1010.7
20260831211511 81 41 1.0 8.0 0.00 0.00 0.00 13 1010.8
20260831210009 81 109 0.0 8.0 0.00 0.00 0.00 13 1011.0
20260831204551 82 182 0.0 0.0 0.00 0.00 0.00 12 1011.3
20260831203049 81 151 0.0 2.0 0.00 0.00 0.00 12 1011.5
20260831201537 81 193 0.0 4.0 0.00 0.00 0.00 12 1011.7
20260831200036 80 169 0.0 5.0 0.00 0.00 0.00 14 1011.9
20260831194601 79 150 0.0 8.0 0.00 0.00 0.00 16 1012.1
20260831193030 78 213 0.0 5.0 0.00 0.00 0.00 17 1012.2
20260831191529 76 146 0.0 9.0 0.00 0.00 0.00 22 1012.4
20260831190029 76 86 0.0 7.0 0.00 0.00 0.00 22 1012.5
20260831184541 76 144 0.0 4.0 0.00 0.00 0.00 21 1012.8
20260831183027 75 265 0.0 0.0 0.00 0.00 0.00 24 1012.8
20260831181521 75 132 0.0 6.0 0.00 0.00 0.00 26 1013.1
20260831180017 72 105 0.0 0.0 0.00 0.00 0.00 29 1013.2
20260831174513 71 79 0.0 3.0 0.00 0.00 0.00 40 1013.1
20260831173012 70 102 0.0 6.0 0.00 0.00 0.00 47 1013.3
20260831171515 68 128 0.0 2.0 0.00 0.00 0.00 48 1013.5
20260831170022 67 38 0.0 0.0 0.00 0.00 0.00 51 1013.6
20260831164510 66 84 0.0 0.0 0.00 0.00 0.00 53 1013.5
20260831163010 66 109 0.0 1.0 0.00 0.00 0.00 52 1013.5
20260831161611 66 163 0.0 1.0 0.00 0.00 0.00 50 1013.6
20260831160057 65 230 0.0 0.0 0.00 0.00 0.00 52 1013.6
20260831154611 63 231 0.0 3.0 0.00 0.00 0.00 53 1013.6
20260831153056 61 248 0.0 0.0 0.00 0.00 0.00 57 1013.7
20260831151555 58 248 0.0 0.0 0.00 0.00 0.00 62 1013.6
20260831150055 56 249 0.0 1.0 0.00 0.00 0.00 65 1013.6
20260831144554 54 271 0.0 1.0 0.00 0.00 0.00 69 1013.6
20260831143052 51 271 0.0 1.0 0.00 0.00 0.00 74 1013.3
20260831141539 49 269 0.0 3.0 0.00 0.00 0.00 79 1013.1